This is the latest recevied weather packets stored in our database for station/object KO4APQ. If no packets are shown the sender has not sent any weather packets the latest 10 day(s).
| Time | Temp. | Humidity | Pressure | Rain* | Wind** | Luminosity | Snow |
|---|---|---|---|---|---|---|---|
| 1778242514 | 11.67° C | 88% | 1018.4 hPa | 0 mm | - | 112 W/m² | - |
| 1778242212 | 11.67° C | 91% | 1018.3 hPa | 0 mm | - | 122 W/m² | - |
| 1778241909 | 11.67° C | 95% | 1018.2 hPa | 0 mm | - | 123 W/m² | - |
| 1778241607 | 11.67° C | 97% | 1018.2 hPa | 0 mm | - | 114 W/m² | - |
| 1778241304 | 11.11° C | 97% | 1018.3 hPa | 0 mm | - | 112 W/m² | - |
| 1778241001 | 10.56° C | 97% | 1018.1 hPa | 0 mm | - | 102 W/m² | - |
| 1778240698 | 10.56° C | 97% | 1018.2 hPa | 0 mm | - | 90 W/m² | - |
| 1778240394 | 10° C | 97% | 1018.1 hPa | 0 mm | - | 86 W/m² | - |
| 1778240092 | 10° C | 97% | 1018 hPa | 0 mm | - | 74 W/m² | - |
| 1778239789 | 9.44° C | 97% | 1017.8 hPa | 0 mm | - | 63 W/m² | - |
| 1778239485 | 8.89° C | 97% | 1017.8 hPa | 0 mm | - | 53 W/m² | - |
| 1778239182 | 8.89° C | 97% | 1017.7 hPa | 0 mm | - | 45 W/m² | - |
| 1778238879 | 8.89° C | 97% | 1017.6 hPa | 0 mm | - | 36 W/m² | - |
| 1778238576 | 8.89° C | 97% | 1017.4 hPa | 0 mm | - | 27 W/m² | - |
| 1778238274 | 8.33° C | 97% | 1017.2 hPa | 0 mm | - | 23 W/m² | - |
| 1778237973 | 8.33° C | 97% | 1017 hPa | 0 mm | - | 19 W/m² | - |
| 1778237670 | 8.33° C | 97% | 1017.1 hPa | 0 mm | - | 18 W/m² | - |
| 1778237367 | 8.33° C | 97% | 1016.8 hPa | 0 mm | - | 9 W/m² | - |
| 1778237065 | 8.33° C | 97% | 1016.8 hPa | 0 mm | - | 6 W/m² | - |
| 1778236761 | 8.89° C | 97% | 1016.7 hPa | 0 mm | - | 4 W/m² | - |
| 1778236458 | 8.89° C | 97% | 1016.6 hPa | 0 mm | - | 2 W/m² | - |
| 1778236155 | 8.89° C | 97% | 1016.5 hPa | 0 mm | - | 1 W/m² | - |
| 1778235854 | 8.89° C | 97% | 1016.6 hPa | 0 mm | - | 1 W/m² | - |
| 1778235551 | 8.89° C | 97% | 1016.3 hPa | 0 mm | - | 0 W/m² | - |
| 1778235248 | 8.89° C | 97% | 1016.2 hPa | 0 mm | - | 0 W/m² | - |
* Rain latest hour (hover to see other rain measurements)
** Current wind speed in m/s (hover to see current wind gust speed)